owner,sensor,date,latitude,longitude,air_pressure(mBar),qcFlag 
NDBC,ioos:station:NOAA.NDBC:PLSF1:1,2014-12-01T02:00:00Z,24.6930,-82.7730,1022.3,1111122 
NDBC,ioos:station:NOAA.NDBC:PLSF1:1,2014-12-01T03:00:00Z,24.6930,-82.7730,1022.3,1111122 
NDBC,ioos:station:NOAA.NDBC:PLSF1:1,2014-12-01T04:00:00Z,24.6930,-82.7730,1022.1,1111122 
NDBC,ioos:station:NOAA.NDBC:PLSF1:1,2014-12-01T05:00:00Z,24.6930,-82.7730,1021.7,1111122 
NDBC,ioos:station:NOAA.NDBC:PLSF1:1,2014-12-01T06:00:00Z,24.6930,-82.7730,1021.1,1111122 
NDBC,ioos:station:NOAA.NDBC:PLSF1:1,2014-12-01T07:00:00Z,24.6930,-82.7730,1020.9,1111122 
NDBC,ioos:station:NOAA.NDBC:PLSF1:1,2014-12-01T08:00:00Z,24.6930,-82.7730,1020.6,1111122 
NDBC,ioos:station:NOAA.NDBC:PLSF1:1,2014-12-01T09:00:00Z,24.6930,-82.7730,1020.7,1111122 
NDBC,ioos:station:NOAA.NDBC:PLSF1:1,2014-12-01T10:00:00Z,24.6930,-82.7730,1020.6,1111122 
NDBC,ioos:station:NOAA.NDBC:PLSF1:1,2014-12-01T11:00:00Z,24.6930,-82.7730,1020.9,1111122 
NDBC,ioos:station:NOAA.NDBC:PLSF1:1,2014-12-01T12:00:00Z,24.6930,-82.7730,1021.6,1111122 
NDBC,ioos:station:NOAA.NDBC:PLSF1:1,2014-12-01T13:00:00Z,24.6930,-82.7730,1022.1,1111122 
NDBC,ioos:station:NOAA.NDBC:PLSF1:1,2014-12-01T19:00:00Z,24.6930,-82.7730,1020.5,1111122 
NDBC,ioos:station:NOAA.NDBC:PLSF1:1,2014-12-01T20:00:00Z,24.6930,-82.7730,1020.0,1111122 
NDBC,ioos:station:NOAA.NDBC:PLSF1:1,2014-12-01T21:00:00Z,24.6930,-82.7730,1020.0,1111122 
NDBC,ioos:station:NOAA.NDBC:PLSF1:1,2014-12-01T22:00:00Z,24.6930,-82.7730,1020.0,1111122 
NDBC,ioos:station:NOAA.NDBC:PLSF1:1,2014-12-01T23:00:00Z,24.6930,-82.7730,1020.0,1111122 
NDBC,ioos:station:NOAA.NDBC:PLSF1:1,2014-12-02T00:00:00Z,24.6930,-82.7730,1020.1,1111122 
NDBC,ioos:station:NOAA.NDBC:PLSF1:1,2014-12-02T01:00:00Z,24.6930,-82.7730,1020.6,1111122 
NDBC,ioos:station:NOAA.NDBC:PLSF1:1,2014-12-02T02:00:00Z,24.6930,-82.7730,1020.9,1111122 
NDBC,ioos:station:NOAA.NDBC:PLSF1:1,2014-12-02T03:00:00Z,24.6930,-82.7730,1021.2,1111122 
NDBC,ioos:station:NOAA.NDBC:PLSF1:1,2014-12-02T04:00:00Z,24.6930,-82.7730,1020.9,1111122 
NDBC,ioos:station:NOAA.NDBC:PLSF1:1,2014-12-02T05:00:00Z,24.6930,-82.7730,1020.3,1111122 
NDBC,ioos:station:NOAA.NDBC:PLSF1:1,2014-12-02T07:00:00Z,24.6930,-82.7730,1019.5,1111122 
NDBC,ioos:station:NOAA.NDBC:PLSF1:1,2014-12-02T08:00:00Z,24.6930,-82.7730,1019.1,1111122 
NDBC,ioos:station:NOAA.NDBC:PLSF1:1,2014-12-02T09:00:00Z,24.6930,-82.7730,1018.6,1111122 
NDBC,ioos:station:NOAA.NDBC:PLSF1:1,2014-12-02T10:00:00Z,24.6930,-82.7730,1018.8,1111122 
NDBC,ioos:station:NOAA.NDBC:PLSF1:1,2014-12-02T11:00:00Z,24.6930,-82.7730,1018.9,1111122 
NDBC,ioos:station:NOAA.NDBC:PLSF1:1,2014-12-02T12:00:00Z,24.6930,-82.7730,1019.3,1111122 
NDBC,ioos:station:NOAA.NDBC:PLSF1:1,2014-12-02T13:00:00Z,24.6930,-82.7730,1019.4,1111122 
NDBC,ioos:station:NOAA.NDBC:PLSF1:1,2014-12-02T14:00:00Z,24.6930,-82.7730,1019.6,1111122 
NDBC,ioos:station:NOAA.NDBC:PLSF1:1,2014-12-02T15:00:00Z,24.6930,-82.7730,1020.0,1111122 
NDBC,ioos:station:NOAA.NDBC:PLSF1:1,2014-12-02T16:00:00Z,24.6930,-82.7730,1020.2,1111122 
NDBC,ioos:station:NOAA.NDBC:PLSF1:1,2014-12-02T17:00:00Z,24.6930,-82.7730,1019.8,1111122 
NDBC,ioos:station:NOAA.NDBC:PLSF1:1,2014-12-02T18:00:00Z,24.6930,-82.7730,1018.6,1111122 
NDBC,ioos:station:NOAA.NDBC:PLSF1:1,2014-12-02T19:00:00Z,24.6930,-82.7730,1018.0,1111122 
NDBC,ioos:station:NOAA.NDBC:PLSF1:1,2014-12-02T20:00:00Z,24.6930,-82.7730,1017.6,1111122 
NDBC,ioos:station:NOAA.NDBC:PLSF1:1,2014-12-02T21:00:00Z,24.6930,-82.7730,1017.7,1111122 
NDBC,ioos:station:NOAA.NDBC:PLSF1:1,2014-12-02T22:00:00Z,24.6930,-82.7730,1017.3,1111122 
NDBC,ioos:station:NOAA.NDBC:PLSF1:1,2014-12-02T23:00:00Z,24.6930,-82.7730,1017.6,1111122 
NDBC,ioos:station:NOAA.NDBC:PLSF1:1,2014-12-03T00:00:00Z,24.6930,-82.7730,1017.8,1111122 
NDBC,ioos:station:NOAA.NDBC:PLSF1:1,2014-12-03T01:00:00Z,24.6930,-82.7730,1018.5,1111122 
NDBC,ioos:station:NOAA.NDBC:PLSF1:1,2014-12-03T02:00:00Z,24.6930,-82.7730,1018.8,1111122 
NDBC,ioos:station:NOAA.NDBC:PLSF1:1,2014-12-03T03:00:00Z,24.6930,-82.7730,1019.4,1111122 
NDBC,ioos:station:NOAA.NDBC:PLSF1:1,2014-12-03T04:00:00Z,24.6930,-82.7730,1019.1,1111122 
NDBC,ioos:station:NOAA.NDBC:PLSF1:1,2014-12-03T05:00:00Z,24.6930,-82.7730,1018.9,1111122 
NDBC,ioos:station:NOAA.NDBC:PLSF1:1,2014-12-03T06:00:00Z,24.6930,-82.7730,1018.4,1111122 
NDBC,ioos:station:NOAA.NDBC:PLSF1:1,2014-12-03T07:00:00Z,24.6930,-82.7730,1017.6,1111122 
NDBC,ioos:station:NOAA.NDBC:PLSF1:1,2014-12-03T08:00:00Z,24.6930,-82.7730,1017.5,1111122 
NDBC,ioos:station:NOAA.NDBC:PLSF1:1,2014-12-03T09:00:00Z,24.6930,-82.7730,1017.2,1111122 
NDBC,ioos:station:NOAA.NDBC:PLSF1:1,2014-12-03T10:00:00Z,24.6930,-82.7730,1017.4,1111122 
NDBC,ioos:station:NOAA.NDBC:PLSF1:1,2014-12-03T11:00:00Z,24.6930,-82.7730,1017.8,1111122 
NDBC,ioos:station:NOAA.NDBC:PLSF1:1,2014-12-03T12:00:00Z,24.6930,-82.7730,1018.3,1111122 
NDBC,ioos:station:NOAA.NDBC:PLSF1:1,2014-12-03T13:00:00Z,24.6930,-82.7730,1019.1,1111122 
NDBC,ioos:station:NOAA.NDBC:PLSF1:1,2014-12-03T14:00:00Z,24.6930,-82.7730,1019.7,1111122 
NDBC,ioos:station:NOAA.NDBC:PLSF1:1,2014-12-03T15:00:00Z,24.6930,-82.7730,1019.9,1111122 
NDBC,ioos:station:NOAA.NDBC:PLSF1:1,2014-12-03T16:00:00Z,24.6930,-82.7730,1019.3,1111122 
NDBC,ioos:station:NOAA.NDBC:PLSF1:1,2014-12-03T17:00:00Z,24.6930,-82.7730,1019.1,1111122 
NDBC,ioos:station:NOAA.NDBC:PLSF1:1,2014-12-03T18:00:00Z,24.6930,-82.7730,1018.2,1111122 
NDBC,ioos:station:NOAA.NDBC:PLSF1:1,2014-12-03T19:00:00Z,24.6930,-82.7730,1017.6,1111122 
NDBC,ioos:station:NOAA.NDBC:PLSF1:1,2014-12-03T20:00:00Z,24.6930,-82.7730,1017.6,1111122 
NDBC,ioos:station:NOAA.NDBC:PLSF1:1,2014-12-03T21:00:00Z,24.6930,-82.7730,1017.5,1111122 
NDBC,ioos:station:NOAA.NDBC:PLSF1:1,2014-12-03T22:00:00Z,24.6930,-82.7730,1017.5,1111122 
NDBC,ioos:station:NOAA.NDBC:PLSF1:1,2014-12-03T23:00:00Z,24.6930,-82.7730,1017.7,1111122 
NDBC,ioos:station:NOAA.NDBC:PLSF1:1,2014-12-04T00:00:00Z,24.6930,-82.7730,1018.4,1111122 
NDBC,ioos:station:NOAA.NDBC:PLSF1:1,2014-12-04T01:00:00Z,24.6930,-82.7730,1019.0,1111122 
NDBC,ioos:station:NOAA.NDBC:PLSF1:1,2014-12-04T02:00:00Z,24.6930,-82.7730,1019.3,1111122 
NDBC,ioos:station:NOAA.NDBC:PLSF1:1,2014-12-04T03:00:00Z,24.6930,-82.7730,1019.5,1111122 
NDBC,ioos:station:NOAA.NDBC:PLSF1:1,2014-12-04T04:00:00Z,24.6930,-82.7730,1019.4,1111122 
NDBC,ioos:station:NOAA.NDBC:PLSF1:1,2014-12-04T05:00:00Z,24.6930,-82.7730,1019.1,1111122 
NDBC,ioos:station:NOAA.NDBC:PLSF1:1,2014-12-04T06:00:00Z,24.6930,-82.7730,1018.6,1111122 
NDBC,ioos:station:NOAA.NDBC:PLSF1:1,2014-12-04T07:00:00Z,24.6930,-82.7730,1018.3,1111122 
NDBC,ioos:station:NOAA.NDBC:PLSF1:1,2014-12-04T08:00:00Z,24.6930,-82.7730,1018.1,1111122 
NDBC,ioos:station:NOAA.NDBC:PLSF1:1,2014-12-04T09:00:00Z,24.6930,-82.7730,1018.1,1111122 
NDBC,ioos:station:NOAA.NDBC:PLSF1:1,2014-12-04T10:00:00Z,24.6930,-82.7730,1018.2,1111122 
NDBC,ioos:station:NOAA.NDBC:PLSF1:1,2014-12-04T11:00:00Z,24.6930,-82.7730,1018.6,1111122 
NDBC,ioos:station:NOAA.NDBC:PLSF1:1,2014-12-04T12:00:00Z,24.6930,-82.7730,1019.1,1111122 
NDBC,ioos:station:NOAA.NDBC:PLSF1:1,2014-12-04T13:00:00Z,24.6930,-82.7730,1019.7,1111122 
NDBC,ioos:station:NOAA.NDBC:PLSF1:1,2014-12-04T14:00:00Z,24.6930,-82.7730,1020.4,1111122 
NDBC,ioos:station:NOAA.NDBC:PLSF1:1,2014-12-04T15:00:00Z,24.6930,-82.7730,1020.8,1111122 
NDBC,ioos:station:NOAA.NDBC:PLSF1:1,2014-12-04T16:00:00Z,24.6930,-82.7730,1020.6,1111122 
NDBC,ioos:station:NOAA.NDBC:PLSF1:1,2014-12-04T17:00:00Z,24.6930,-82.7730,1019.6,1111122 
NDBC,ioos:station:NOAA.NDBC:PLSF1:1,2014-12-04T18:00:00Z,24.6930,-82.7730,1018.5,1111122 
NDBC,ioos:station:NOAA.NDBC:PLSF1:1,2014-12-04T19:00:00Z,24.6930,-82.7730,1017.6,1111122 
NDBC,ioos:station:NOAA.NDBC:PLSF1:1,2014-12-04T20:00:00Z,24.6930,-82.7730,1017.4,1111122 
NDBC,ioos:station:NOAA.NDBC:PLSF1:1,2014-12-04T21:00:00Z,24.6930,-82.7730,1017.7,1111122 
NDBC,ioos:station:NOAA.NDBC:PLSF1:1,2014-12-04T22:00:00Z,24.6930,-82.7730,1018.0,1111122 
NDBC,ioos:station:NOAA.NDBC:PLSF1:1,2014-12-04T23:00:00Z,24.6930,-82.7730,1018.5,1111122 
NDBC,ioos:station:NOAA.NDBC:PLSF1:1,2014-12-05T00:00:00Z,24.6930,-82.7730,1019.3,1111122 
NDBC,ioos:station:NOAA.NDBC:PLSF1:1,2014-12-05T01:00:00Z,24.6930,-82.7730,1019.7,1111122 
NDBC,ioos:station:NOAA.NDBC:PLSF1:1,2014-12-05T02:00:00Z,24.6930,-82.7730,1019.9,1111122 
NDBC,ioos:station:NOAA.NDBC:PLSF1:1,2014-12-05T03:00:00Z,24.6930,-82.7730,1020.3,1111122 
NDBC,ioos:station:NOAA.NDBC:PLSF1:1,2014-12-05T04:00:00Z,24.6930,-82.7730,1020.0,1111122 
NDBC,ioos:station:NOAA.NDBC:PLSF1:1,2014-12-05T05:00:00Z,24.6930,-82.7730,1019.6,1111122 
NDBC,ioos:station:NOAA.NDBC:PLSF1:1,2014-12-05T07:00:00Z,24.6930,-82.7730,1018.7,1111122 
NDBC,ioos:station:NOAA.NDBC:PLSF1:1,2014-12-05T08:00:00Z,24.6930,-82.7730,1018.5,1111122 
NDBC,ioos:station:NOAA.NDBC:PLSF1:1,2014-12-05T09:00:00Z,24.6930,-82.7730,1018.9,1111122 
NDBC,ioos:station:NOAA.NDBC:PLSF1:1,2014-12-05T10:00:00Z,24.6930,-82.7730,1019.0,1111122 
NDBC,ioos:station:NOAA.NDBC:PLSF1:1,2014-12-05T11:00:00Z,24.6930,-82.7730,1019.7,1111122 
NDBC,ioos:station:NOAA.NDBC:PLSF1:1,2014-12-05T12:00:00Z,24.6930,-82.7730,1020.3,1111122 
NDBC,ioos:station:NOAA.NDBC:PLSF1:1,2014-12-05T13:00:00Z,24.6930,-82.7730,1020.7,1111122 
NDBC,ioos:station:NOAA.NDBC:PLSF1:1,2014-12-05T14:00:00Z,24.6930,-82.7730,1021.1,1111122 
NDBC,ioos:station:NOAA.NDBC:PLSF1:1,2014-12-05T15:00:00Z,24.6930,-82.7730,1021.6,1111122 
NDBC,ioos:station:NOAA.NDBC:PLSF1:1,2014-12-05T16:00:00Z,24.6930,-82.7730,1021.3,1111122 
NDBC,ioos:station:NOAA.NDBC:PLSF1:1,2014-12-05T17:00:00Z,24.6930,-82.7730,1020.7,1111122 
NDBC,ioos:station:NOAA.NDBC:PLSF1:1,2014-12-05T18:00:00Z,24.6930,-82.7730,1019.9,1111122 
NDBC,ioos:station:NOAA.NDBC:PLSF1:1,2014-12-05T19:00:00Z,24.6930,-82.7730,1019.1,1111122 
NDBC,ioos:station:NOAA.NDBC:PLSF1:1,2014-12-05T20:00:00Z,24.6930,-82.7730,1019.1,1111122 
NDBC,ioos:station:NOAA.NDBC:PLSF1:1,2014-12-05T21:00:00Z,24.6930,-82.7730,1019.3,1111122 
NDBC,ioos:station:NOAA.NDBC:PLSF1:1,2014-12-05T22:00:00Z,24.6930,-82.7730,1019.7,1111122 
NDBC,ioos:station:NOAA.NDBC:PLSF1:1,2014-12-05T23:00:00Z,24.6930,-82.7730,1019.9,1111122 
NDBC,ioos:station:NOAA.NDBC:PLSF1:1,2014-12-06T00:00:00Z,24.6930,-82.7730,1020.6,1111122 
NDBC,ioos:station:NOAA.NDBC:PLSF1:1,2014-12-06T01:00:00Z,24.6930,-82.7730,1021.2,1111122 
NDBC,ioos:station:NOAA.NDBC:PLSF1:1,2014-12-06T02:00:00Z,24.6930,-82.7730,1021.4,1111122 
NDBC,ioos:station:NOAA.NDBC:PLSF1:1,2014-12-06T03:00:00Z,24.6930,-82.7730,1021.4,1111122 
NDBC,ioos:station:NOAA.NDBC:PLSF1:1,2014-12-06T04:00:00Z,24.6930,-82.7730,1021.1,1111122 
NDBC,ioos:station:NOAA.NDBC:PLSF1:1,2014-12-06T05:00:00Z,24.6930,-82.7730,1020.7,1111122 
NDBC,ioos:station:NOAA.NDBC:PLSF1:1,2014-12-06T07:00:00Z,24.6930,-82.7730,1019.9,1111122 
NDBC,ioos:station:NOAA.NDBC:PLSF1:1,2014-12-06T08:00:00Z,24.6930,-82.7730,1019.4,1111122 
NDBC,ioos:station:NOAA.NDBC:PLSF1:1,2014-12-06T09:00:00Z,24.6930,-82.7730,1019.4,1111122 
NDBC,ioos:station:NOAA.NDBC:PLSF1:1,2014-12-06T10:00:00Z,24.6930,-82.7730,1019.8,1111122 
NDBC,ioos:station:NOAA.NDBC:PLSF1:1,2014-12-06T11:00:00Z,24.6930,-82.7730,1020.1,1111122 
NDBC,ioos:station:NOAA.NDBC:PLSF1:1,2014-12-06T12:00:00Z,24.6930,-82.7730,1020.5,1111122 
NDBC,ioos:station:NOAA.NDBC:PLSF1:1,2014-12-06T13:00:00Z,24.6930,-82.7730,1021.2,1111122 
NDBC,ioos:station:NOAA.NDBC:PLSF1:1,2014-12-06T14:00:00Z,24.6930,-82.7730,1021.6,1111122 
NDBC,ioos:station:NOAA.NDBC:PLSF1:1,2014-12-06T15:00:00Z,24.6930,-82.7730,1021.8,1111122 
NDBC,ioos:station:NOAA.NDBC:PLSF1:1,2014-12-06T16:00:00Z,24.6930,-82.7730,1021.7,1111122 
NDBC,ioos:station:NOAA.NDBC:PLSF1:1,2014-12-06T17:00:00Z,24.6930,-82.7730,1021.1,1111122 
NDBC,ioos:station:NOAA.NDBC:PLSF1:1,2014-12-06T18:00:00Z,24.6930,-82.7730,1020.2,1111122 
NDBC,ioos:station:NOAA.NDBC:PLSF1:1,2014-12-06T19:00:00Z,24.6930,-82.7730,1019.5,1111122 
NDBC,ioos:station:NOAA.NDBC:PLSF1:1,2014-12-06T20:00:00Z,24.6930,-82.7730,1019.2,1111122 
NDBC,ioos:station:NOAA.NDBC:PLSF1:1,2014-12-06T21:00:00Z,24.6930,-82.7730,1019.0,1111122 
NDBC,ioos:station:NOAA.NDBC:PLSF1:1,2014-12-06T22:00:00Z,24.6930,-82.7730,1019.1,1111122 
NDBC,ioos:station:NOAA.NDBC:PLSF1:1,2014-12-06T23:00:00Z,24.6930,-82.7730,1019.1,1111122 
NDBC,ioos:station:NOAA.NDBC:PLSF1:1,2014-12-07T00:00:00Z,24.6930,-82.7730,1019.6,1111122 
NDBC,ioos:station:NOAA.NDBC:PLSF1:1,2014-12-07T01:00:00Z,24.6930,-82.7730,1019.8,1111122 
NDBC,ioos:station:NOAA.NDBC:PLSF1:1,2014-12-07T02:00:00Z,24.6930,-82.7730,1020.0,1111122 
NDBC,ioos:station:NOAA.NDBC:PLSF1:1,2014-12-07T03:00:00Z,24.6930,-82.7730,1019.9,1111122 
NDBC,ioos:station:NOAA.NDBC:PLSF1:1,2014-12-07T04:00:00Z,24.6930,-82.7730,1019.7,1111122 
NDBC,ioos:station:NOAA.NDBC:PLSF1:1,2014-12-07T05:00:00Z,24.6930,-82.7730,1019.3,1111122 
NDBC,ioos:station:NOAA.NDBC:PLSF1:1,2014-12-07T06:00:00Z,24.6930,-82.7730,1019.0,1111122 
NDBC,ioos:station:NOAA.NDBC:PLSF1:1,2014-12-07T07:00:00Z,24.6930,-82.7730,1018.8,1111122 
NDBC,ioos:station:NOAA.NDBC:PLSF1:1,2014-12-07T08:00:00Z,24.6930,-82.7730,1018.4,1111122 
NDBC,ioos:station:NOAA.NDBC:PLSF1:1,2014-12-07T09:00:00Z,24.6930,-82.7730,1018.1,1111122 
NDBC,ioos:station:NOAA.NDBC:PLSF1:1,2014-12-07T10:00:00Z,24.6930,-82.7730,1017.9,1111122 
NDBC,ioos:station:NOAA.NDBC:PLSF1:1,2014-12-07T11:00:00Z,24.6930,-82.7730,1018.2,1111122 
NDBC,ioos:station:NOAA.NDBC:PLSF1:1,2014-12-07T12:00:00Z,24.6930,-82.7730,1018.5,1111122 
NDBC,ioos:station:NOAA.NDBC:PLSF1:1,2014-12-07T13:00:00Z,24.6930,-82.7730,1019.0,1111122 
NDBC,ioos:station:NOAA.NDBC:PLSF1:1,2014-12-07T14:00:00Z,24.6930,-82.7730,1019.6,1111122 
NDBC,ioos:station:NOAA.NDBC:PLSF1:1,2014-12-07T15:00:00Z,24.6930,-82.7730,1019.9,1111122 
NDBC,ioos:station:NOAA.NDBC:PLSF1:1,2014-12-07T16:00:00Z,24.6930,-82.7730,1019.6,1111122 
NDBC,ioos:station:NOAA.NDBC:PLSF1:1,2014-12-07T17:00:00Z,24.6930,-82.7730,1018.8,1111122 
NDBC,ioos:station:NOAA.NDBC:PLSF1:1,2014-12-07T18:00:00Z,24.6930,-82.7730,1017.9,1111122 
NDBC,ioos:station:NOAA.NDBC:PLSF1:1,2014-12-07T19:00:00Z,24.6930,-82.7730,1017.0,1111122 
NDBC,ioos:station:NOAA.NDBC:PLSF1:1,2014-12-07T20:00:00Z,24.6930,-82.7730,1016.5,1111122 
NDBC,ioos:station:NOAA.NDBC:PLSF1:1,2014-12-07T21:00:00Z,24.6930,-82.7730,1016.5,1111122 
NDBC,ioos:station:NOAA.NDBC:PLSF1:1,2014-12-07T22:00:00Z,24.6930,-82.7730,1016.8,1111122 
NDBC,ioos:station:NOAA.NDBC:PLSF1:1,2014-12-07T23:00:00Z,24.6930,-82.7730,1017.0,1111122 
NDBC,ioos:station:NOAA.NDBC:PLSF1:1,2014-12-08T00:00:00Z,24.6930,-82.7730,1017.5,1111122 
NDBC,ioos:station:NOAA.NDBC:PLSF1:1,2014-12-08T01:00:00Z,24.6930,-82.7730,1017.9,1111122 
NDBC,ioos:station:NOAA.NDBC:PLSF1:1,2014-12-08T02:00:00Z,24.6930,-82.7730,1018.1,1111122 
NDBC,ioos:station:NOAA.NDBC:PLSF1:1,2014-12-08T03:00:00Z,24.6930,-82.7730,1018.4,1111122 
NDBC,ioos:station:NOAA.NDBC:PLSF1:1,2014-12-08T04:00:00Z,24.6930,-82.7730,1018.3,1111122 
NDBC,ioos:station:NOAA.NDBC:PLSF1:1,2014-12-08T05:00:00Z,24.6930,-82.7730,1018.1,1111122 
NDBC,ioos:station:NOAA.NDBC:PLSF1:1,2014-12-08T06:00:00Z,24.6930,-82.7730,1017.7,1111122 
NDBC,ioos:station:NOAA.NDBC:PLSF1:1,2014-12-08T07:00:00Z,24.6930,-82.7730,1017.2,1111122 
NDBC,ioos:station:NOAA.NDBC:PLSF1:1,2014-12-08T08:00:00Z,24.6930,-82.7730,1016.7,1111122 
NDBC,ioos:station:NOAA.NDBC:PLSF1:1,2014-12-08T09:00:00Z,24.6930,-82.7730,1016.5,1111122 
NDBC,ioos:station:NOAA.NDBC:PLSF1:1,2014-12-08T10:00:00Z,24.6930,-82.7730,1016.6,1111122 
NDBC,ioos:station:NOAA.NDBC:PLSF1:1,2014-12-08T11:00:00Z,24.6930,-82.7730,1016.8,1111122 
NDBC,ioos:station:NOAA.NDBC:PLSF1:1,2014-12-08T12:00:00Z,24.6930,-82.7730,1017.1,1111122 
NDBC,ioos:station:NOAA.NDBC:PLSF1:1,2014-12-08T13:00:00Z,24.6930,-82.7730,1017.6,1111122 
NDBC,ioos:station:NOAA.NDBC:PLSF1:1,2014-12-08T14:00:00Z,24.6930,-82.7730,1018.6,1111122 
NDBC,ioos:station:NOAA.NDBC:PLSF1:1,2014-12-08T15:00:00Z,24.6930,-82.7730,1019.2,1111122 
NDBC,ioos:station:NOAA.NDBC:PLSF1:1,2014-12-08T16:00:00Z,24.6930,-82.7730,1018.9,1111122 
NDBC,ioos:station:NOAA.NDBC:PLSF1:1,2014-12-08T17:00:00Z,24.6930,-82.7730,1018.5,1111122 
NDBC,ioos:station:NOAA.NDBC:PLSF1:1,2014-12-08T18:00:00Z,24.6930,-82.7730,1017.3,1111122 
NDBC,ioos:station:NOAA.NDBC:PLSF1:1,2014-12-08T19:00:00Z,24.6930,-82.7730,1016.6,1111122 
NDBC,ioos:station:NOAA.NDBC:PLSF1:1,2014-12-08T20:00:00Z,24.6930,-82.7730,1016.4,1111122 
NDBC,ioos:station:NOAA.NDBC:PLSF1:1,2014-12-08T21:00:00Z,24.6930,-82.7730,1016.4,1111122 
NDBC,ioos:station:NOAA.NDBC:PLSF1:1,2014-12-08T22:00:00Z,24.6930,-82.7730,1016.4,1111122 
NDBC,ioos:station:NOAA.NDBC:PLSF1:1,2014-12-08T23:00:00Z,24.6930,-82.7730,1016.5,1111122 
NDBC,ioos:station:NOAA.NDBC:PLSF1:1,2014-12-09T00:00:00Z,24.6930,-82.7730,1017.0,1111122 
NDBC,ioos:station:NOAA.NDBC:PLSF1:1,2014-12-09T01:00:00Z,24.6930,-82.7730,1017.3,1111122 
NDBC,ioos:station:NOAA.NDBC:PLSF1:1,2014-12-09T02:00:00Z,24.6930,-82.7730,1017.7,1111122 
NDBC,ioos:station:NOAA.NDBC:PLSF1:1,2014-12-09T03:00:00Z,24.6930,-82.7730,1017.8,1111122 
NDBC,ioos:station:NOAA.NDBC:PLSF1:1,2014-12-09T04:00:00Z,24.6930,-82.7730,1017.8,1111122 
NDBC,ioos:station:NOAA.NDBC:PLSF1:1,2014-12-09T05:00:00Z,24.6930,-82.7730,1017.5,1111122 
NDBC,ioos:station:NOAA.NDBC:PLSF1:1,2014-12-09T06:00:00Z,24.6930,-82.7730,1017.3,1111122 
NDBC,ioos:station:NOAA.NDBC:PLSF1:1,2014-12-09T07:00:00Z,24.6930,-82.7730,1017.2,1111122 
NDBC,ioos:station:NOAA.NDBC:PLSF1:1,2014-12-09T08:00:00Z,24.6930,-82.7730,1016.7,1111122 
NDBC,ioos:station:NOAA.NDBC:PLSF1:1,2014-12-09T09:00:00Z,24.6930,-82.7730,1016.6,1111122 
NDBC,ioos:station:NOAA.NDBC:PLSF1:1,2014-12-09T10:00:00Z,24.6930,-82.7730,1016.4,1111122 
NDBC,ioos:station:NOAA.NDBC:PLSF1:1,2014-12-09T11:00:00Z,24.6930,-82.7730,1016.6,1111122 
NDBC,ioos:station:NOAA.NDBC:PLSF1:1,2014-12-09T12:00:00Z,24.6930,-82.7730,1017.0,1111122 
NDBC,ioos:station:NOAA.NDBC:PLSF1:1,2014-12-09T13:00:00Z,24.6930,-82.7730,1017.4,1111122 
NDBC,ioos:station:NOAA.NDBC:PLSF1:1,2014-12-09T14:00:00Z,24.6930,-82.7730,1017.9,1111122 
NDBC,ioos:station:NOAA.NDBC:PLSF1:1,2014-12-09T15:00:00Z,24.6930,-82.7730,1018.4,1111122 
NDBC,ioos:station:NOAA.NDBC:PLSF1:1,2014-12-09T16:00:00Z,24.6930,-82.7730,1018.4,1111122 
NDBC,ioos:station:NOAA.NDBC:PLSF1:1,2014-12-09T17:00:00Z,24.6930,-82.7730,1018.0,1111122 
NDBC,ioos:station:NOAA.NDBC:PLSF1:1,2014-12-09T18:00:00Z,24.6930,-82.7730,1017.6,1111122 
NDBC,ioos:station:NOAA.NDBC:PLSF1:1,2014-12-09T19:00:00Z,24.6930,-82.7730,1016.9,1111122 
NDBC,ioos:station:NOAA.NDBC:PLSF1:1,2014-12-09T20:00:00Z,24.6930,-82.7730,1016.7,1111122 
NDBC,ioos:station:NOAA.NDBC:PLSF1:1,2014-12-09T21:00:00Z,24.6930,-82.7730,1016.8,1111122 
NDBC,ioos:station:NOAA.NDBC:PLSF1:1,2014-12-09T22:00:00Z,24.6930,-82.7730,1017.4,1111122 
NDBC,ioos:station:NOAA.NDBC:PLSF1:1,2014-12-10T00:00:00Z,24.6930,-82.7730,1017.6,1111122 
NDBC,ioos:station:NOAA.NDBC:PLSF1:1,2014-12-10T01:00:00Z,24.6930,-82.7730,1018.0,1111122 
NDBC,ioos:station:NOAA.NDBC:PLSF1:1,2014-12-10T02:00:00Z,24.6930,-82.7730,1018.3,1111122 
NDBC,ioos:station:NOAA.NDBC:PLSF1:1,2014-12-10T03:00:00Z,24.6930,-82.7730,1018.8,1111122 
NDBC,ioos:station:NOAA.NDBC:PLSF1:1,2014-12-10T04:00:00Z,24.6930,-82.7730,1019.1,1111122 
NDBC,ioos:station:NOAA.NDBC:PLSF1:1,2014-12-10T05:00:00Z,24.6930,-82.7730,1019.1,1111122 
NDBC,ioos:station:NOAA.NDBC:PLSF1:1,2014-12-10T06:00:00Z,24.6930,-82.7730,1018.9,1111122 
NDBC,ioos:station:NOAA.NDBC:PLSF1:1,2014-12-10T07:00:00Z,24.6930,-82.7730,1018.5,1111122 
NDBC,ioos:station:NOAA.NDBC:PLSF1:1,2014-12-10T08:00:00Z,24.6930,-82.7730,1018.2,1111122 
NDBC,ioos:station:NOAA.NDBC:PLSF1:1,2014-12-10T09:00:00Z,24.6930,-82.7730,1018.0,1111122 
NDBC,ioos:station:NOAA.NDBC:PLSF1:1,2014-12-10T10:00:00Z,24.6930,-82.7730,1018.4,1111122 
NDBC,ioos:station:NOAA.NDBC:PLSF1:1,2014-12-10T11:00:00Z,24.6930,-82.7730,1018.9,1111122 
NDBC,ioos:station:NOAA.NDBC:PLSF1:1,2014-12-10T12:00:00Z,24.6930,-82.7730,1019.5,1111122 
NDBC,ioos:station:NOAA.NDBC:PLSF1:1,2014-12-10T13:00:00Z,24.6930,-82.7730,1020.2,1111122 
NDBC,ioos:station:NOAA.NDBC:PLSF1:1,2014-12-10T14:00:00Z,24.6930,-82.7730,1021.1,1111122 
NDBC,ioos:station:NOAA.NDBC:PLSF1:1,2014-12-10T15:00:00Z,24.6930,-82.7730,1022.0,1111122 
NDBC,ioos:station:NOAA.NDBC:PLSF1:1,2014-12-10T16:00:00Z,24.6930,-82.7730,1022.1,1111122 
NDBC,ioos:station:NOAA.NDBC:PLSF1:1,2014-12-10T17:00:00Z,24.6930,-82.7730,1021.5,1111122 
NDBC,ioos:station:NOAA.NDBC:PLSF1:1,2014-12-10T18:00:00Z,24.6930,-82.7730,1020.4,1111122 
NDBC,ioos:station:NOAA.NDBC:PLSF1:1,2014-12-10T19:00:00Z,24.6930,-82.7730,1019.8,1111122 
NDBC,ioos:station:NOAA.NDBC:PLSF1:1,2014-12-10T20:00:00Z,24.6930,-82.7730,1019.2,1111122 
NDBC,ioos:station:NOAA.NDBC:PLSF1:1,2014-12-10T21:00:00Z,24.6930,-82.7730,1019.2,1111122 
NDBC,ioos:station:NOAA.NDBC:PLSF1:1,2014-12-10T22:00:00Z,24.6930,-82.7730,1019.3,1111122 
NDBC,ioos:station:NOAA.NDBC:PLSF1:1,2014-12-11T00:00:00Z,24.6930,-82.7730,1019.4,1111122 
NDBC,ioos:station:NOAA.NDBC:PLSF1:1,2014-12-11T01:00:00Z,24.6930,-82.7730,1019.5,1111122 
NDBC,ioos:station:NOAA.NDBC:PLSF1:1,2014-12-11T02:00:00Z,24.6930,-82.7730,1019.9,1111122 
NDBC,ioos:station:NOAA.NDBC:PLSF1:1,2014-12-11T03:00:00Z,24.6930,-82.7730,1019.7,1111122 
NDBC,ioos:station:NOAA.NDBC:PLSF1:1,2014-12-11T04:00:00Z,24.6930,-82.7730,1020.2,1111122 
NDBC,ioos:station:NOAA.NDBC:PLSF1:1,2014-12-11T05:00:00Z,24.6930,-82.7730,1020.2,1111122 
NDBC,ioos:station:NOAA.NDBC:PLSF1:1,2014-12-11T06:00:00Z,24.6930,-82.7730,1019.9,1111122 
NDBC,ioos:station:NOAA.NDBC:PLSF1:1,2014-12-11T07:00:00Z,24.6930,-82.7730,1019.6,1111122 
NDBC,ioos:station:NOAA.NDBC:PLSF1:1,2014-12-11T08:00:00Z,24.6930,-82.7730,1019.6,1111122 
NDBC,ioos:station:NOAA.NDBC:PLSF1:1,2014-12-11T09:00:00Z,24.6930,-82.7730,1019.7,1111122 
NDBC,ioos:station:NOAA.NDBC:PLSF1:1,2014-12-11T10:00:00Z,24.6930,-82.7730,1019.7,1111122 
NDBC,ioos:station:NOAA.NDBC:PLSF1:1,2014-12-11T11:00:00Z,24.6930,-82.7730,1020.0,1111122 
NDBC,ioos:station:NOAA.NDBC:PLSF1:1,2014-12-11T12:00:00Z,24.6930,-82.7730,1020.2,1111122 
NDBC,ioos:station:NOAA.NDBC:PLSF1:1,2014-12-11T13:00:00Z,24.6930,-82.7730,1021.1,1111122 
NDBC,ioos:station:NOAA.NDBC:PLSF1:1,2014-12-11T14:00:00Z,24.6930,-82.7730,1022.1,1111122 
NDBC,ioos:station:NOAA.NDBC:PLSF1:1,2014-12-11T15:00:00Z,24.6930,-82.7730,1022.9,1111122 
NDBC,ioos:station:NOAA.NDBC:PLSF1:1,2014-12-11T16:00:00Z,24.6930,-82.7730,1022.9,1111122 
NDBC,ioos:station:NOAA.NDBC:PLSF1:1,2014-12-11T17:00:00Z,24.6930,-82.7730,1022.3,1111122 
NDBC,ioos:station:NOAA.NDBC:PLSF1:1,2014-12-11T18:00:00Z,24.6930,-82.7730,1021.2,1111122 
NDBC,ioos:station:NOAA.NDBC:PLSF1:1,2014-12-11T19:00:00Z,24.6930,-82.7730,1020.5,1111122 
NDBC,ioos:station:NOAA.NDBC:PLSF1:1,2014-12-11T20:00:00Z,24.6930,-82.7730,1019.9,1111122 
NDBC,ioos:station:NOAA.NDBC:PLSF1:1,2014-12-11T21:00:00Z,24.6930,-82.7730,1020.1,1111122 
NDBC,ioos:station:NOAA.NDBC:PLSF1:1,2014-12-11T22:00:00Z,24.6930,-82.7730,1020.2,1111122 
NDBC,ioos:station:NOAA.NDBC:PLSF1:1,2014-12-11T23:00:00Z,24.6930,-82.7730,1020.3,1111122 
NDBC,ioos:station:NOAA.NDBC:PLSF1:1,2014-12-12T00:00:00Z,24.6930,-82.7730,1020.7,1111122 
NDBC,ioos:station:NOAA.NDBC:PLSF1:1,2014-12-12T01:00:00Z,24.6930,-82.7730,1021.2,1111122 
NDBC,ioos:station:NOAA.NDBC:PLSF1:1,2014-12-12T02:00:00Z,24.6930,-82.7730,1021.3,1111122 
NDBC,ioos:station:NOAA.NDBC:PLSF1:1,2014-12-12T03:00:00Z,24.6930,-82.7730,1021.6,1111122 
NDBC,ioos:station:NOAA.NDBC:PLSF1:1,2014-12-12T04:00:00Z,24.6930,-82.7730,1021.9,1111122 
NDBC,ioos:station:NOAA.NDBC:PLSF1:1,2014-12-12T05:00:00Z,24.6930,-82.7730,1021.9,1111122 
NDBC,ioos:station:NOAA.NDBC:PLSF1:1,2014-12-12T06:00:00Z,24.6930,-82.7730,1021.3,1111122 
NDBC,ioos:station:NOAA.NDBC:PLSF1:1,2014-12-12T07:00:00Z,24.6930,-82.7730,1021.1,1111122 
NDBC,ioos:station:NOAA.NDBC:PLSF1:1,2014-12-12T08:00:00Z,24.6930,-82.7730,1021.1,1111122 
NDBC,ioos:station:NOAA.NDBC:PLSF1:1,2014-12-12T09:00:00Z,24.6930,-82.7730,1021.2,1111122 
NDBC,ioos:station:NOAA.NDBC:PLSF1:1,2014-12-12T10:00:00Z,24.6930,-82.7730,1021.0,1111122 
NDBC,ioos:station:NOAA.NDBC:PLSF1:1,2014-12-12T12:00:00Z,24.6930,-82.7730,1021.9,1111122 
NDBC,ioos:station:NOAA.NDBC:PLSF1:1,2014-12-12T13:00:00Z,24.6930,-82.7730,1022.7,1111122 